Cloud_Cover
0 0 0 0 0 0 0 0 0 0 0 0 3 0 0 0 4 0 0 0 0 0 7 0 0 0 100 100 100 97 100 92 4 3 1 14 0 2 4 4 72 53 0 0 5
0 0 0 0 0 0 0 0 0 0 0 0 0 0 0 4 0 0 0 0 0 0 0 0 1 100 100 100 86 94 24 81 4 3 5 20 1 3 2 1 0 0 0 0 0
0 0 0 0 0 0 0 0 0 0 0 0 8 0 0 16 0 0 0 0 0 0 0 0 10 100 100 100 16 88 9 25 0 2 5 1 4 14 22 0 0 0 0 0 0
0 0 0 0 0 0 0 0 0 0 4 13 22 0 6 0 0 0 0 0 0 0 0 0 98 100 96 56 20 99 54 1 0 3 0 0 11 5 83 0 0 0 0 0 12
0 0 0 0 0 0 0 0 0 0 14 11 30 0 1 0 0 0 0 0 0 0 0 33 64 43 67 100 100 92 1 2 2 0 0 12 0 0 0 0 0 0 0 1 25
0 0 0 23 7 12 15 21 0 0 1 29 28 36 0 0 0 0 0 0 0 0 0 94 95 28 34 0 81 92 2 4 2 0 29 21 3 0 0 0 0 0 1 30 2
0 0 1 7 30 24 39 3 0 0 0 1 0 0 0 0 0 0 0 0 0 0 20 88 28 75 100 100 96 94 3 6 0 0 100 100 73 5 0 0 0 0 13 24 41
74 96 62 100 100 99 28 0 0 0 0 0 4 0 0 0 0 0 0 0 0 0 4 2 5 100 100 100 49 100 100 83 5 0 99 100 100 0 0 0 0 2 0 3 1
100 100 85 66 46 3 0 0 0 0 0 1 8 0 0 0 0 0 0 0 0 0 0 2 100 65 100 100 100 100 90 79 5 0 30 88 10 0 2 4 4 0 9 25 1
10 0 0 0 0 0 22 0 0 0 0 0 0 0 0 0 0 0 0 0 0 0 0 63 27 100 100 100 98 59 86 19 32 5 1 40 46 7 3 5 5 5 2 19 0
0 0 0 0 0 0 12 0 0 0 0 0 0 0 0 0 0 0 0 0 0 0 5 45 92 100 74 7 70 30 88 77 7 2 97 21 93 100 0 18 39 89 7 8 5
0 0 0 0 0 2 8 0 0 0 0 0 0 0 0 0 0 0 0 0 0 0 4 100 73 10 31 55 70 93 100 100 0 2 86 10 75 9 72 100 77 70 17 29 64
0 0 0 0 3 4 0 0 0 0 0 0 0 0 0 0 0 0 0 0 0 0 48 100 96 86 16 56 50 57 53 21 22 0 96 100 6 95 100 100 60 12 82 23 81
0 0 0 3 0 0 0 0 0 0 0 0 0 0 0 0 0 0 0 0 0 0 41 94 52 67 1 36 54 34 48 4 98 46 20 4 82 100 100 100 100 66 44 21 4
0 0 0 1 0 0 0 0 0 0 0 0 0 0 0 0 0 0 0 0 0 0 22 87 49 5 6 100 6 42 77 100 100 100 100 64 65 0 5 7 91 10 79 12 31
0 0 1 0 0 0 0 0 0 0 0 0 0 0 0 0 0 0 0 0 0 1 5 72 98 5 1 32 1 93 13 98 100 100 99 90 100 68 12 0 0 0 2 64 100
0 0 20 0 0 0 0 0 0 0 0 0 0 0 0 2 5 3 2 3 0 0 0 39 71 0 1 0 70 79 100 98 100 100 64 100 100 5 14 0 2 2 2 1 14
0 14 0 0 0 0 0 0 0 0 0 0 5 0 0 0 5 5 5 5 0 0 5 0 14 2 0 4 79 100 100 100 100 100 2 30 19 3 0 0 5 0 5 8 100
14 0 0 0 0 0 0 0 0 0 0 5 46 0 0 0 5 5 5 4 0 0 2 5 2 4 0 0 100 100 100 100 100 53 99 8 1 4 0 0 5 27 4 0 0
0 0 0 0 0 0 0 0 0 0 0 35 94 2 0 5 19 5 5 17 0 0 2 4 5 5 0 5 2 23 42 59 100 100 100 2 18 4 0 2 4 32 65 1 0
0 0 0 0 0 0 0 0 0 0 0 5 33 5 5 5 87 5 47 12 0 3 72 12 62 78 4 0 34 84 17 100 78 100 100 8 30 0 0 4 36 61 42 79 1
0 2 22 10 4 0 0 0 0 0 0 7 6 5 4 5 11 11 5 94 5 0 91 5 45 22 0 3 22 95 66 57 100 100 100 99 2 0 0 4 57 95 10 13 0
3 5 92 2 0 0 0 79 5 22 0 7 100 30 5 5 14 5 9 81 4 0 5 4 5 100 5 1 3 81 98 100 100 100 98 70 33 5 0 0 0 0 0 0 0
19 93 100 6 0 0 49 100 97 68 14 68 100 97 51 5 13 27 100 76 1 14 100 57 2 88 4 16 83 1 12 51 100 100 100 10 0 0 0 0 0 0 0 0 0
64 69 98 98 3 2 100 15 46 70 8 28 89 7 5 39 5 5 92 62 0 60 100 99 62 97 71 83 5 2 0 78 96 100 95 40 4 4 1 0 0 0 0 0 0
87 100 98 100 97 2 95 68 100 98 32 96 100 33 5 87 33 47 6 5 3 33 100 100 100 53 100 96 19 57 5 2 87 100 99 100 42 4 2 0 0 0 0 0 0
91 100 100 20 8 2 97 94 85 44 61 100 100 100 97 23 4 9 77 100 9 5 66 100 100 98 100 89 46 2 27 2 0 0 26 39 92 4 1 0 0 0 0 0 0